Stations météo

réclame
Mon MeteoGroup
Geneve-Cointrin, Suisse (6700): Température de l'air & dewpoint: 19.06.2019 16:00:00 - 25.06.2019 16:00:00 (CEST)Geneve-Cointrin, Suisse (6700): Température de l'air 5cm: 19.06.2019 16:00:00 - 25.06.2019 16:00:00 (CEST)Geneve-Cointrin, Suisse (6700): Vitesse du vent & gusts: 19.06.2019 16:00:00 - 25.06.2019 16:00:00 (CEST)Geneve-Cointrin, Suisse (6700): Direction du vent: 19.06.2019 16:00:00 - 25.06.2019 16:00:00 (CEST)Geneve-Cointrin, Suisse (6700): reduced air pressure: 19.06.2019 16:00:00 - 25.06.2019 16:00:00 (CEST)Geneve-Cointrin, Suisse (6700): visibility: 19.06.2019 16:00:00 - 25.06.2019 16:00:00 (CEST)Geneve-Cointrin, Suisse (6700): Ensoleillement: 19.06.2019 16:00:00 - 25.06.2019 16:00:00 (CEST)Geneve-Cointrin, Suisse (6700): Quantités de précipitations: 19.06.2019 16:00:00 - 25.06.2019 16:00:00 (CEST)
Date & Time tt [°C] td [°C] tt 5cm [°C] ff [km/h] ff [knt] fx [km/h] fx [knt] dd ppp [hPa] vv [km] sd [min] rr [mm]
25.06.2019 16:00:00 31,0 18,5 35,5 6 4 16 9 NE 1017,3 - 60 0,0
25.06.2019 15:00:00 30,2 18,7 35,8 8 5 16 8 ENE 1017,5 - 60 0,0
25.06.2019 14:00:00 28,8 16,2 34,6 8 4 16 8 ENE 1018,2 50 60 0,0
25.06.2019 13:00:00 28,1 17,6 33,6 9 5 19 10 E 1018,4 - 60 0,0
25.06.2019 12:00:00 27,2 17,5 32,3 7 4 17 9 E 1018,7 - 60 0,0
25.06.2019 11:00:00 25,3 18,4 31,4 8 4 15 8 E 1019,2 50 60 0,0
25.06.2019 10:00:00 24,9 17,9 30,7 3 2 7 4 NNW 1019,5 - 60 0,0
25.06.2019 09:00:00 22,9 17,4 27,4 3 2 7 4 WSW 1019,7 - 60 0,0
25.06.2019 08:00:00 21,1 17,9 23,3 2 1 10 5 W 1019,6 45 60 0,0
25.06.2019 07:00:00 18,5 16,3 17,6 3 2 5 3 WNW 1019,5 - 18 0,0
25.06.2019 06:00:00 17,2 16,0 14,6 1 1 8 4 NE 1019,0 - 0 0,0
25.06.2019 05:00:00 17,2 15,8 14,9 2 1 4 2 WNW 1018,3 - 0 0,0
25.06.2019 04:00:00 18,4 15,9 15,9 3 2 5 3 WSW 1018,0 - 0 0,0
25.06.2019 03:00:00 18,8 15,6 15,7 1 1 5 3 ESE 1018,2 - 0 0,0
25.06.2019 02:00:00 19,0 16,5 16,3 2 1 5 3 N 1018,2 - 0 0,0
25.06.2019 01:00:00 20,1 16,4 17,3 3 1 6 3 WNW 1017,8 - 0 0,0
25.06.2019 00:00:00 21,6 16,5 18,9 5 3 7 4 W 1017,4 - 0 0,0
24.06.2019 23:00:00 21,7 18,4 19,0 1 1 8 4 NNE 1017,2 50 0 0,0
24.06.2019 22:00:00 22,7 18,4 19,4 2 1 4 2 WNW 1016,5 - 0 0,0
24.06.2019 21:00:00 25,2 17,9 22,2 2 1 5 3 W 1015,9 - 0 0,0
24.06.2019 20:00:00 26,3 18,0 25,3 3 2 13 7 N 1015,6 50 0 0,0
24.06.2019 19:00:00 27,4 15,0 28,5 8 4 14 8 NNE 1015,2 - 11 0,0
24.06.2019 18:00:00 27,5 16,2 27,9 11 6 16 9 NE 1015,1 - 7 0,0
24.06.2019 17:00:00 28,3 14,9 31,3 13 7 18 10 NE 1015,2 50 60 0,0
24.06.2019 16:00:00 28,3 15,8 33,6 10 5 20 11 ENE 1015,5 - 60 0,0
24.06.2019 15:00:00 28,1 14,8 32,8 8 4 18 10 E 1015,9 - 60 0,0
24.06.2019 14:00:00 27,1 16,7 32,8 10 5 20 11 E 1016,3 50 60 0,0
24.06.2019 13:00:00 25,8 15,2 32,1 4 2 17 9 E 1016,9 - 60 0,0
24.06.2019 12:00:00 25,3 17,0 30,9 6 4 14 8 NNE 1017,0 - 60 0,0
24.06.2019 11:00:00 23,2 15,8 29,0 5 3 14 7 ESE 1017,4 50 60 0,0
24.06.2019 10:00:00 22,4 15,9 28,1 7 4 18 10 ENE 1017,6 - 60 0,0
24.06.2019 09:00:00 20,5 15,0 25,6 4 2 8 4 E 1018,0 - 60 0,0
24.06.2019 08:00:00 18,8 16,2 21,9 3 2 5 3 NNE 1018,3 50 60 0,0
24.06.2019 07:00:00 16,0 14,4 16,1 1 0 4 2 NE 1018,9 - 42 0,0
24.06.2019 06:00:00 14,8 13,9 11,5 1 1 4 2 NW 1018,9 - 0 0,0
24.06.2019 05:00:00 15,3 14,3 12,0 2 1 4 2 E 1018,8 - 0 0,0
24.06.2019 04:00:00 15,6 14,5 12,3 1 1 5 3 N 1018,8 - 0 0,0
24.06.2019 03:00:00 16,3 15,0 13,1 3 1 5 3 NNW 1018,6 - 0 0,0
24.06.2019 02:00:00 17,3 15,7 14,0 0 0 4 2 N 1018,4 - 0 0,0
24.06.2019 01:00:00 18,1 15,8 15,0 1 1 4 2 NW 1018,1 - 0 0,0
24.06.2019 00:00:00 19,5 15,5 15,4 1 1 3 2 WSW 1017,5 - 0 0,0
23.06.2019 23:00:00 20,3 16,1 16,4 0 0 8 4 WSW 1017,0 55 0 0,0
23.06.2019 22:00:00 21,7 15,8 18,3 1 1 5 3 N 1015,9 - 0 0,0
23.06.2019 21:00:00 22,7 15,6 21,0 4 2 7 4 NNE 1015,0 - 5 0,0
23.06.2019 20:00:00 24,0 14,9 22,8 6 3 10 5 N 1014,4 55 0 0,0
23.06.2019 19:00:00 25,2 12,5 24,5 9 5 13 7 NE 1014,0 - 41 0,0
23.06.2019 18:00:00 26,3 11,6 29,3 7 4 14 8 E 1013,9 - 60 0,0
23.06.2019 17:00:00 25,8 12,1 28,3 9 5 15 8 ENE 1014,1 55 60 0,0
23.06.2019 16:00:00 25,5 13,1 30,8 7 4 15 8 E 1014,3 - 60 0,0
23.06.2019 15:00:00 24,6 14,0 30,2 9 5 21 11 ENE 1014,6 - 60 0,0
23.06.2019 14:00:00 24,2 16,5 30,6 9 5 19 11 NE 1015,0 60 60 0,0
23.06.2019 13:00:00 23,2 14,1 28,4 14 7 23 13 ENE 1015,2 - 60 0,0
23.06.2019 12:00:00 21,7 14,2 27,2 12 6 27 15 NE 1015,7 - 60 0,0
23.06.2019 11:00:00 20,3 15,3 26,0 16 8 26 14 ENE 1015,8 30 60 0,0
23.06.2019 10:00:00 19,1 14,2 24,0 16 8 24 13 NE 1016,3 - 60 0,0
23.06.2019 09:00:00 18,3 14,3 23,2 6 4 11 6 E 1016,7 - 60 0,0
23.06.2019 08:00:00 16,3 14,4 19,7 3 2 6 3 NE 1017,2 40 60 0,0
23.06.2019 07:00:00 14,1 12,9 14,4 3 1 5 3 N 1017,5 - 43 0,0
23.06.2019 06:00:00 13,5 12,6 11,1 1 1 10 5 SSW 1017,3 - 0 0,0
23.06.2019 05:00:00 13,3 12,3 11,5 4 2 8 4 W 1017,2 - 0 0,0
23.06.2019 04:00:00 13,7 12,7 11,1 5 3 7 4 NE 1017,1 - 0 0,0
23.06.2019 03:00:00 14,0 12,4 12,1 2 1 4 2 W 1017,2 - 0 0,0
23.06.2019 02:00:00 14,5 13,0 11,7 2 1 5 3 SSE 1017,1 - 0 0,0
23.06.2019 01:00:00 15,3 13,5 12,4 3 1 8 4 W 1017,1 - 0 0,0
23.06.2019 00:00:00 16,6 13,6 13,6 1 0 8 4 NE 1016,9 - 0 0,0
22.06.2019 23:00:00 17,1 14,4 13,9 3 2 7 4 WNW 1016,8 40 0 0,0
22.06.2019 22:00:00 18,5 14,2 15,0 3 2 10 5 NNE 1016,1 - 0 0,0
22.06.2019 21:00:00 20,6 14,0 19,2 7 4 19 10 NNE 1015,1 - 50 0,0
22.06.2019 20:00:00 21,8 14,8 23,1 13 7 29 16 NE 1014,8 30 57 0,0
22.06.2019 19:00:00 23,0 14,4 26,3 6 3 13 7 N 1014,2 - 35 0,0
22.06.2019 18:00:00 22,4 14,4 23,8 10 6 16 9 W 1014,5 - 47 0,0
22.06.2019 17:00:00 23,2 14,0 28,6 4 2 17 9 W 1014,8 25 60 0,0
22.06.2019 16:00:00 20,1 17,4 21,6 9 5 21 11 SSW 1015,6 - 1 0,7
22.06.2019 15:00:00 21,2 15,4 22,3 16 8 22 12 SSW 1015,2 - 2 0,0
22.06.2019 14:00:00 22,5 14,4 29,4 8 5 19 10 NE 1014,8 30 56 0,0
22.06.2019 13:00:00 22,2 14,7 29,4 11 6 20 11 ENE 1015,3 - 60 0,0
22.06.2019 12:00:00 20,8 15,0 27,3 8 5 21 11 E 1015,6 - 42 0,0
22.06.2019 11:00:00 19,5 15,5 24,6 5 3 14 7 N 1015,8 27 43 0,0
22.06.2019 10:00:00 18,8 15,3 23,9 4 2 16 9 NNE 1016,1 - 22 0,0
22.06.2019 09:00:00 17,5 14,7 18,9 6 3 10 5 E 1016,3 - 3 0,0
22.06.2019 08:00:00 16,6 15,1 17,2 9 5 14 8 ENE 1016,5 27 0 0,0
22.06.2019 07:00:00 16,3 15,3 15,8 8 4 11 6 NNE 1016,5 - 0 0,0
22.06.2019 06:00:00 16,1 15,0 15,3 6 3 13 7 ENE 1016,5 - 0 0,1
22.06.2019 05:00:00 16,6 15,7 15,9 5 3 10 5 NNE 1016,2 - 0 0,0
22.06.2019 04:00:00 16,7 15,6 16,1 5 3 9 5 ENE 1016,7 - 0 0,0
22.06.2019 03:00:00 16,7 15,6 16,2 4 2 9 5 NNW 1016,6 - 0 0,1
22.06.2019 02:00:00 16,4 15,1 15,5 6 3 8 4 NNE 1016,7 - 0 0,0
22.06.2019 01:00:00 17,0 14,8 15,8 4 2 12 6 E 1016,7 - 0 0,0
22.06.2019 00:00:00 17,6 15,2 16,5 4 2 8 4 ESE 1016,8 - 0 0,0
21.06.2019 23:00:00 17,3 15,0 15,2 5 3 18 10 ENE 1016,6 25 0 0,0
21.06.2019 22:00:00 18,5 14,7 17,0 12 6 24 13 ENE 1016,5 - 0 0,0
21.06.2019 21:00:00 19,3 16,2 18,3 4 2 12 7 NNW 1016,2 - 0 0,0
21.06.2019 20:00:00 19,5 16,3 18,4 5 3 7 4 S 1016,2 27 0 0,0
21.06.2019 19:00:00 19,1 16,6 18,6 2 1 13 7 N 1015,7 - 0 0,4
21.06.2019 18:00:00 20,5 14,8 19,6 7 4 30 16 N 1015,3 - 0 0,0
21.06.2019 17:00:00 21,8 14,4 22,7 21 11 35 19 NE 1015,1 30 38 0,0
21.06.2019 16:00:00 22,7 14,8 27,6 19 11 29 16 NE 1014,9 - 21 0,0
21.06.2019 15:00:00 21,7 15,1 25,2 12 7 21 12 NNE 1015,6 - 0 0,0
21.06.2019 14:00:00 21,6 15,0 26,1 11 6 23 12 NNE 1015,6 30 8 0,0
21.06.2019 13:00:00 20,6 15,2 23,4 10 6 24 13 NE 1016,2 - 0 0,0
21.06.2019 12:00:00 20,4 15,3 22,9 17 9 24 13 NE 1016,3 - 13 0,0
21.06.2019 11:00:00 19,5 15,0 22,9 11 6 23 13 NE 1016,5 30 2 0,0
21.06.2019 10:00:00 18,4 14,7 20,1 10 5 18 10 NE 1016,5 - 0 0,0
21.06.2019 09:00:00 17,7 14,5 19,0 3 2 6 3 ENE 1016,7 - 0 0,0
21.06.2019 08:00:00 17,2 14,6 17,3 3 2 9 5 N 1016,4 40 0 0,0
21.06.2019 07:00:00 15,9 14,6 15,4 7 4 10 5 N 1016,3 - 0 0,0
21.06.2019 06:00:00 15,4 13,9 14,3 6 3 9 5 N 1016,5 - 0 0,0
21.06.2019 05:00:00 15,7 13,9 14,0 1 0 7 4 NNW 1016,6 - 0 0,0
21.06.2019 04:00:00 15,4 14,2 14,2 4 2 7 4 NW 1016,8 - 0 0,0
21.06.2019 03:00:00 16,0 14,3 13,4 5 3 10 5 N 1016,6 - 0 0,0
21.06.2019 02:00:00 16,9 14,4 14,8 6 3 13 7 N 1016,2 - 0 0,0
21.06.2019 01:00:00 16,7 14,0 14,1 4 2 11 6 N 1016,4 - 0 0,0
21.06.2019 00:00:00 18,1 14,1 14,8 4 2 14 7 N 1016,0 - 0 0,0
20.06.2019 23:00:00 19,0 14,4 16,3 5 3 12 6 NE 1015,3 30 0 0,0
20.06.2019 22:00:00 20,5 14,7 18,1 6 3 13 7 NNE 1015,0 - 0 0,0
20.06.2019 21:00:00 21,2 15,5 20,0 7 4 16 9 NNE 1014,2 - 0 0,0
20.06.2019 20:00:00 22,1 15,0 21,9 13 7 18 10 ENE 1013,9 30 34 0,0
20.06.2019 19:00:00 24,6 13,4 27,9 6 4 15 8 NW 1012,8 - 20 0,0
20.06.2019 18:00:00 25,2 14,2 26,8 7 4 15 8 W 1012,7 - 33 0,0
20.06.2019 17:00:00 24,0 13,4 27,5 9 5 20 11 WSW 1012,8 35 54 0,0
20.06.2019 16:00:00 23,4 13,8 25,3 9 5 21 12 WSW 1013,1 - 31 0,0
20.06.2019 15:00:00 24,0 14,0 26,6 13 7 23 12 SW 1013,3 - 53 0,0
20.06.2019 14:00:00 23,3 12,7 29,5 9 5 22 12 SSW 1013,7 50 59 0,0
20.06.2019 13:00:00 21,1 14,7 28,0 10 5 20 11 ESE 1014,7 - 60 0,0
20.06.2019 12:00:00 20,7 13,9 25,8 10 6 19 10 SW 1014,9 - 56 0,0
20.06.2019 11:00:00 17,9 14,9 19,2 3 2 14 8 NNW 1015,7 50 5 0,0
20.06.2019 10:00:00 17,0 15,3 17,7 4 2 13 7 S 1016,3 - 0 0,4
20.06.2019 09:00:00 16,2 15,3 15,7 5 3 20 11 S 1015,8 - 0 2,9
20.06.2019 08:00:00 17,3 15,8 16,8 5 3 13 7 WSW 1014,8 15 4 0,0
20.06.2019 07:00:00 16,4 15,6 15,9 6 3 10 5 W 1014,3 - 0 0,1
20.06.2019 06:00:00 15,9 15,3 15,1 3 1 12 6 ESE 1014,2 - 0 2,0
20.06.2019 05:00:00 16,0 15,1 15,3 5 3 21 12 SSE 1014,4 - 0 2,2
20.06.2019 04:00:00 17,8 13,6 16,6 16 9 31 17 WSW 1014,0 - 0 0,1
20.06.2019 03:00:00 18,6 10,6 15,9 5 3 12 6 WSW 1013,5 - 0 0,0
20.06.2019 02:00:00 20,1 9,2 18,0 5 3 22 12 W 1013,5 - 0 0,0
20.06.2019 01:00:00 21,8 8,2 18,8 9 5 29 16 SW 1012,8 - 0 0,0
20.06.2019 00:00:00 22,3 9,0 19,5 12 6 23 13 S 1012,6 - 0 0,0
19.06.2019 23:00:00 23,6 8,8 21,0 18 10 37 20 SSW 1012,0 45 0 0,0
19.06.2019 22:00:00 23,7 10,1 21,0 31 17 43 23 SW 1010,7 - 0 0,0
19.06.2019 21:00:00 24,2 12,1 22,4 26 14 39 21 SW 1010,0 - 0 0,0
19.06.2019 20:00:00 25,2 12,9 23,9 27 15 44 24 SW 1009,4 45 2 0,0
19.06.2019 19:00:00 26,6 13,7 25,5 24 13 37 20 SW 1008,8 - 4 0,0
19.06.2019 18:00:00 28,0 10,8 27,4 25 13 42 23 SW 1008,3 - 26 0,0
19.06.2019 17:00:00 28,0 9,0 26,9 24 13 40 22 SW 1008,6 50 11 0,0
19.06.2019 16:00:00 28,1 10,7 29,5 18 10 29 16 SW 1009,0 - 52 0,0

tt = Température de l'air
td = dewpoint
tt 5cm = Température de l'air 5cm
ff = Vitesse du vent
fx = gusts
dd = Direction du vent
ppp = reduced air pressure
vv = visibility
sd = Ensoleillement
rr = Quantités de précipitations

stations d'obs. à proximité